Location: Newark
(46.2167°N, 5.8664°E)
Time: 14:25:34
(UTC+00:00)

N. Korean satellite - Pass Details

Date: 18 October 2019
Orbit: 456 x 506 km, 97.2° (Epoch: 20 November)

Event Time Altitude Azimuth Distance (km) Brightness Sun altitude
Rises 17:49:52 0° 214° (SW) 2,464 10.7 -11.8°
Reaches altitude 10° 17:53:05 10° 248° (WSW) 1,600 10.4 -12.4°
Maximum altitude 17:54:22 12° 270° (W) 1,501 10.5 -12.6°
Drops below altitude 10° 17:55:40 10° 293° (WNW) 1,609 10.3 -12.8°
Sets 17:58:56 0° 327° (NNW) 2,499 10.7 -13.4°
